Location: Potomac Astrometric Observatory
(39.0475°N, 77.2064°W)
Time: 03:34:54
(UTC-04:00)

Envisat - Pass Details

Date: 26 March 2019
Orbit: 764 x 766 km, 98.1° (Epoch: 17 October)

Event Time Altitude Azimuth Distance (km) Brightness Sun altitude
Rises 20:28:02 0° 189° (S) 3,214 6.2 -12.6°
Reaches altitude 10° 20:30:32 10° 199° (SSW) 2,292 5.5 -13.1°
Maximum altitude 20:35:05 34° 263° (W) 1,255 4.8 -13.9°
Drops below altitude 10° 20:39:40 10° 328° (NNW) 2,308 6.2 -14.8°
Sets 20:42:12 0° 338° (NNW) 3,239 6.8 -15.3°
